Weather in Prudhoe Bay

United States     70°18′27″N   148°36′37″W
temp.,
°C
wind,
m/s
gust,
m/s
humid.,
%
clouds,
%
prec.,
mm/h
press.,
hPa
HPBL,
m
7 may, fri
fri701:00−12ne5109615 0.0 1025105
04:00−12ne5129760 0.0 1025133
07:00−7ne71394100 0.0 1023407
10:00−5ne8138990 0.0 1023514
13:00−4ene81289100 0.0 1022651
16:00−3ene91286100 0.1 1021882
19:00−3ene9128799 0.0 1021889
22:00−4ne91491100 0.1 1021540
8 may, sat
sat801:00−7ne71394100 0.1 1021317
04:00−8ne71295100 0.5 1021300
07:00−7ene71295100 0.8 1021350
10:00−6ene71093100 1.0 1022415
13:00−4ene7888100 0.1 1022657
16:00−2ene6890100 0.3 1023829
19:00−3ene799394 0.3 1023594
22:00−4ne599471 0.4 1024257
9 may, sun
sun901:00−7ne489768 0.1 1025137
04:00−8ne479774 0.1 1025113
07:00−7ne479667 0.1 1026152
10:00−7ne479576 0.1 1027192
13:00−4ene569084 0.0 1027463
16:00−2ene678497 0.1 1027621
19:00−3ene578690 0.0 1027577
22:00−7ne59958 0.0 1027110
10 may, mon
mon1001:00−11ne499765 0.0 102783
04:00−12ene499873 0.0 102793
07:00−11ene5109671 0.0 1027155
10:00−8ene6129472 0.0 1026299
13:00−5ene7119096 0.0 1026464
16:00−4ene7108771 0.0 1025549
19:00−5ene7118984 0.0 1025446
22:00−7ene61194100 0.0 1025241
11 may, tue
tue1101:00−8ne6119694 0.0 1024202
04:00−8ne61295100 0.1 1024224
07:00−7ene71193100 0.0 1024436
10:00−5ene7119299 0.1 1025572
13:00−3ene8108994 0.0 1025711
16:00−2ene81083100 0.1 1025813
19:00−2ene81182100 0.0 1025826
22:00−5ne8129384 0.0 1025349